Location: Unspecified
(0.0000°N, 0.0000°E)
Time: 13:35:07
(UTC+00:00)

Kosmos-2213 - Pass Details

Date: 16 November 2025
Orbit: 1409 x 1415 km, 82.6° (Epoch: 13 December)

Event Time Altitude Azimuth Distance (km) Brightness Sun altitude
Rises 03:50:59 0° 174° (S) 4,483 10.3 -26.8°
Reaches altitude 10° 03:53:53 10° 170° (S) 3,506 9.7 -26.1°
Maximum altitude 04:02:02 57° 93° (E) 1,633 7.9 -24.2°
Drops below altitude 10° 04:10:10 10° 17° (NNE) 3,498 9.3 -22.3°
Sets 04:13:02 0° 13° (NNE) 4,473 9.9 -21.6°
